sat.trackr.live / text

‹ back to catalog

STARLINK-35388

NORAD 66466 · 2025-262L

PAYLOAD ACTIVE UNKNOWN

§ Identity

Operator
Country
US
Launch date
2025-11-15
Launch site
AFETR
Launch vehicle
Mass (kg)
RCS (m²)

Purposes: comms

External: N2YO · Heavens-Above · Gunter

§ Orbital elements

Epoch: 2026-09-20T09:00:44.207424Z

Period
94.27 min
Inclination
43.0019°
Eccentricity
0.0001328
Mean motion
15.27592466 rev/d
Perigee alt
482.1 km
Apogee alt
483.9 km
Semi-major
6,861.1 km
B*
4.4019e-4
RAAN
276.4686°
Arg perigee
270.0126°
Mean anomaly
90.0573°
Rev number
4,868

§ Raw data

STARLINK-353881 66466U 25262L   26263.37551166  .00011875  00000+0  44019-3 0  99902 66466  43.0019 276.4686 0001328 270.0126  90.0573 15.27592466 48685

JSON: /api/v1/satellites/66466 · /tle

For live sub-satellite position, see the globe view (requires WebGL).

§ Visibility from observer

Set your observer location to see the next 7 days of passes ≥ 10°. The values pass through the URL so the page stays shareable.

No JS? Fill the form by hand. The geolocation button needs JavaScript.